| time (UTC) | temp F | wind direction | speed knots | gust knots | rain 1hr in | rain 24hr in | rain mn in | humidity % | barometer mb |
| 20260507122424 | 57 | 66 | 0.0 | 3.5 | 0.00 | 0.00 | 0.00 | 99 | 1007.2 |
| 20260507121924 | 55 | 78 | 0.0 | 4.3 | 0.00 | 0.00 | 0.00 | 99 | 1007.2 |
| 20260507121424 | 55 | 87 | 0.0 | 5.2 | 0.00 | 0.00 | 0.00 | 99 | 1008.0 |
| 20260507120924 | 55 | 67 | 0.0 | 5.2 | 0.00 | 0.00 | 0.00 | 99 | 1007.2 |
| 20260507120424 | 55 | 39 | 0.0 | 4.3 | 0.00 | 0.00 | 0.00 | 99 | 1007.2 |
| 20260507115924 | 0 | 93 | 0.0 | 0.0 | 0.00 | 0.00 | 0.00 | 99 | 1007.2 |
| 20260507115424 | 0 | 44 | 0.0 | 0.0 | 0.00 | 0.00 | 0.00 | 99 | 1007.2 |
| 20260507114924 | 0 | 44 | 0.0 | 1.7 | 0.00 | 0.00 | 0.00 | 99 | 1007.2 |
| 20260507114424 | 0 | 82 | 0.0 | 1.7 | 0.00 | 0.00 | 0.00 | 99 | 1008.0 |
| 20260507113924 | 0 | 39 | 0.0 | 4.3 | 0.00 | 0.00 | 0.00 | 99 | 1007.2 |
| 20260507113424 | 0 | 47 | 0.9 | 4.3 | 0.00 | 0.00 | 0.00 | 99 | 1008.0 |
| 20260507112924 | 0 | 82 | 1.7 | 3.5 | 0.00 | 0.00 | 0.00 | 99 | 1007.2 |
| 20260507112424 | 0 | 73 | 0.9 | 2.6 | 0.00 | 0.00 | 0.00 | 99 | 1008.0 |
| 20260507111924 | 0 | 46 | 0.9 | 3.5 | 0.00 | 0.00 | 0.00 | 99 | 1008.0 |
| 20260507111424 | 0 | 78 | 0.9 | 3.5 | 0.00 | 0.00 | 0.00 | 99 | 1007.2 |
| 20260507110924 | 0 | 39 | 0.9 | 3.5 | 0.00 | 0.00 | 0.00 | 99 | 1007.2 |
| 20260507110424 | 0 | 50 | 0.9 | 3.5 | 0.00 | 0.00 | 0.00 | 99 | 1008.0 |
| 20260507105924 | 0 | 82 | 0.9 | 2.6 | 0.00 | 0.00 | 0.00 | 99 | 1007.2 |
| 20260507105424 | 0 | 47 | 0.0 | 3.5 | 0.00 | 0.00 | 0.00 | 99 | 1008.0 |
| 20260507104924 | 0 | 51 | 0.9 | 3.5 | 0.00 | 0.00 | 0.00 | 99 | 1007.2 |
| 20260507104424 | 0 | 82 | 0.9 | 2.6 | 0.00 | 0.00 | 0.00 | 99 | 1007.1 |
| 20260507103924 | 0 | 41 | 1.7 | 4.3 | 0.00 | 0.00 | 0.00 | 99 | 1007.0 |
| 20260507103424 | 0 | 43 | 1.7 | 4.3 | 0.00 | 0.00 | 0.00 | 99 | 1007.0 |
| 20260507102924 | 0 | 55 | 0.9 | 2.6 | 0.00 | 0.00 | 0.00 | 99 | 1007.0 |
| 20260507102424 | 0 | 48 | 0.9 | 2.6 | 0.00 | 0.00 | 0.00 | 99 | 1007.0 |
| 20260507101924 | 0 | 78 | 0.9 | 4.3 | 0.00 | 0.00 | 0.00 | 99 | 1007.0 |
| 20260507101424 | 0 | 46 | 0.9 | 4.3 | 0.00 | 0.00 | 0.00 | 99 | 1007.0 |
| 20260507100924 | 0 | 50 | 0.0 | 0.0 | 0.00 | 0.00 | 0.00 | 99 | 1007.0 |
| 20260507100424 | 0 | 73 | 0.0 | 0.0 | 0.00 | 0.00 | 0.00 | 99 | 1007.0 |
| 20260507095924 | 0 | 47 | 0.0 | 0.0 | 0.00 | 0.00 | 0.00 | 99 | 1007.0 |
| 20260507095424 | 0 | 70 | 0.0 | 0.0 | 0.00 | 0.00 | 0.00 | 99 | 1007.0 |
| 20260507094924 | 0 | 67 | 0.0 | 0.0 | 0.00 | 0.00 | 0.00 | 99 | 1007.0 |
| 20260507094424 | 0 | 49 | 0.0 | 1.7 | 0.00 | 0.00 | 0.00 | 99 | 1007.0 |
| 20260507093924 | 0 | 41 | 0.0 | 1.7 | 0.00 | 0.00 | 0.00 | 99 | 1007.0 |
| 20260507093424 | 0 | 87 | 0.0 | 0.0 | 0.00 | 0.00 | 0.00 | 99 | 1006.2 |
| 20260507092924 | 0 | 48 | 0.0 | 0.0 | 0.00 | 0.00 | 0.00 | 99 | 1007.0 |
| 20260507092424 | 0 | 135 | 0.0 | 0.0 | 0.00 | 0.00 | 0.00 | 99 | 1007.0 |
| 20260507091924 | 0 | 128 | 0.0 | 0.0 | 0.00 | 0.00 | 0.00 | 99 | 1007.0 |
| 20260507091424 | 0 | 179 | 0.0 | 0.0 | 0.00 | 0.00 | 0.00 | 99 | 1007.0 |
| 20260507090924 | 0 | 183 | 0.0 | 0.0 | 0.00 | 0.00 | 0.00 | 99 | 1007.0 |
| 20260507090424 | 0 | 56 | 0.0 | 0.0 | 0.00 | 0.00 | 0.00 | 99 | 1007.0 |
| 20260507085924 | 0 | 309 | 0.0 | 0.0 | 0.00 | 0.00 | 0.00 | 99 | 1007.0 |
| 20260507085424 | 0 | 113 | 0.0 | 0.0 | 0.00 | 0.00 | 0.00 | 99 | 1007.0 |
| 20260507084924 | 0 | 132 | 0.0 | 0.0 | 0.00 | 0.00 | 0.00 | 99 | 1007.0 |
| 20260507084424 | 0 | 104 | 0.0 | 0.0 | 0.00 | 0.00 | 0.00 | 99 | 1007.0 |
| 20260507083924 | 0 | 85 | 0.0 | 0.0 | 0.00 | 0.00 | 0.00 | 99 | 1007.0 |
| 20260507083424 | 0 | 43 | 0.0 | 0.0 | 0.00 | 0.00 | 0.00 | 99 | 1007.0 |
| 20260507082924 | 0 | 45 | 0.0 | 0.0 | 0.00 | 0.00 | 0.00 | 99 | 1007.0 |
| 20260507082424 | 0 | 67 | 0.0 | 0.0 | 0.00 | 0.00 | 0.00 | 99 | 1007.0 |
| 20260507081924 | 0 | 63 | 0.0 | 0.0 | 0.00 | 0.00 | 0.00 | 99 | 1007.0 |
| 20260507081424 | 0 | 93 | 0.0 | 0.0 | 0.00 | 0.00 | 0.00 | 99 | 1006.2 |
| 20260507080924 | 0 | 129 | 0.0 | 0.0 | 0.00 | 0.00 | 0.00 | 99 | 1007.0 |
| 20260507080424 | 0 | 46 | 0.0 | 0.0 | 0.00 | 0.00 | 0.00 | 99 | 1007.0 |
| 20260507075924 | 0 | 76 | 0.0 | 0.0 | 0.00 | 0.00 | 0.00 | 99 | 1007.0 |
| 20260507075424 | 0 | 45 | 0.0 | 0.0 | 0.00 | 0.00 | 0.00 | 99 | 1007.0 |
| 20260507074924 | 0 | 55 | 0.0 | 0.0 | 0.00 | 0.00 | 0.00 | 99 | 1007.0 |
| 20260507074424 | 0 | 55 | 0.0 | 0.0 | 0.00 | 0.00 | 0.00 | 99 | 1007.0 |
| 20260507073924 | 0 | 52 | 0.0 | 0.0 | 0.00 | 0.00 | 0.00 | 99 | 1007.0 |
| 20260507073424 | 0 | 72 | 0.0 | 0.0 | 0.00 | 0.00 | 0.00 | 99 | 1006.2 |
| 20260507072924 | 0 | 45 | 0.0 | 0.0 | 0.00 | 0.00 | 0.00 | 99 | 1007.0 |
| 20260507072424 | 0 | 76 | 0.0 | 0.9 | 0.00 | 0.00 | 0.00 | 99 | 1006.2 |
| 20260507071924 | 0 | 41 | 0.0 | 0.9 | 0.00 | 0.00 | 0.00 | 99 | 1007.0 |
| 20260507071424 | 0 | 50 | 0.0 | 0.9 | 0.00 | 0.00 | 0.00 | 99 | 1007.0 |
| 20260507070924 | 0 | 44 | 0.0 | 0.9 | 0.00 | 0.00 | 0.00 | 99 | 1007.0 |
| 20260507070424 | 0 | 61 | 0.0 | 0.9 | 0.00 | 0.00 | 0.00 | 99 | 1006.2 |
| 20260507065924 | 0 | 79 | 0.0 | 0.9 | 0.00 | 0.00 | 0.00 | 99 | 1006.0 |
| 20260507065424 | 0 | 55 | 0.0 | 0.0 | 0.00 | 0.00 | 0.00 | 99 | 1006.1 |
| 20260507064924 | 0 | 53 | 0.0 | 0.0 | 0.00 | 0.00 | 0.00 | 99 | 1007.0 |
| 20260507064424 | 0 | 69 | 0.0 | 3.5 | 0.00 | 0.00 | 0.00 | 99 | 1006.2 |
| 20260507063924 | 0 | 67 | 0.0 | 3.5 | 0.00 | 0.00 | 0.00 | 99 | 1006.2 |
| 20260507063424 | 0 | 76 | 0.0 | 0.9 | 0.00 | 0.00 | 0.00 | 99 | 1006.1 |
| 20260507062924 | 0 | 54 | 0.0 | 0.0 | 0.00 | 0.00 | 0.00 | 99 | 1006.1 |
| 20260507062424 | 0 | 51 | 0.0 | 0.0 | 0.00 | 0.00 | 0.00 | 99 | 1006.2 |
| 20260507061924 | 0 | 46 | 0.0 | 0.0 | 0.00 | 0.00 | 0.00 | 99 | 1007.0 |
| 20260507061424 | 0 | 54 | 0.0 | 0.0 | 0.00 | 0.00 | 0.00 | 99 | 1006.1 |
| 20260507060924 | 0 | 76 | 0.0 | 0.0 | 0.00 | 0.00 | 0.00 | 99 | 1007.0 |
| 20260507060424 | 0 | 67 | 0.0 | 0.0 | 0.00 | 0.00 | 0.00 | 99 | 1006.2 |
| 20260507055924 | 0 | 76 | 0.0 | 0.0 | 0.00 | 0.00 | 0.00 | 99 | 1006.2 |
| 20260507055424 | 0 | 72 | 0.0 | 0.0 | 0.00 | 0.00 | 0.00 | 99 | 1006.1 |
| 20260507054924 | 0 | 36 | 0.0 | 0.0 | 0.00 | 0.00 | 0.00 | 99 | 1006.1 |
| 20260507054424 | 0 | 91 | 0.0 | 0.0 | 0.00 | 0.00 | 0.00 | 99 | 1006.2 |
| 20260507053924 | 0 | 136 | 0.0 | 0.0 | 0.00 | 0.00 | 0.00 | 99 | 1007.0 |
| 20260507053424 | 0 | 90 | 0.0 | 0.0 | 0.00 | 0.00 | 0.00 | 99 | 1006.2 |
| 20260507052924 | 0 | 140 | 0.0 | 0.0 | 0.00 | 0.00 | 0.00 | 99 | 1007.0 |
| 20260507052424 | 0 | 93 | 0.0 | 0.0 | 0.00 | 0.00 | 0.00 | 99 | 1006.1 |
| 20260507051924 | 0 | 106 | 0.0 | 0.0 | 0.00 | 0.00 | 0.00 | 99 | 1006.0 |
| 20260507051424 | 0 | 144 | 0.0 | 0.0 | 0.00 | 0.00 | 0.00 | 99 | 1006.2 |
| 20260507050924 | 0 | 96 | 0.0 | 0.0 | 0.00 | 0.00 | 0.00 | 99 | 1007.0 |
| 20260507050423 | 0 | 87 | 0.0 | 0.0 | 0.00 | 0.00 | 0.00 | 99 | 1006.2 |
| 20260507045923 | 0 | 151 | 0.0 | 0.9 | 0.00 | 0.00 | 0.00 | 99 | 1007.0 |
| 20260507045423 | 0 | 79 | 0.0 | 0.9 | 0.00 | 0.00 | 0.00 | 99 | 1006.2 |
| 20260507044923 | 0 | 85 | 0.0 | 0.0 | 0.00 | 0.00 | 0.00 | 99 | 1007.0 |
| 20260507044423 | 0 | 75 | 0.0 | 0.0 | 0.00 | 0.00 | 0.00 | 99 | 1006.2 |
| 20260507043923 | 0 | 137 | 0.0 | 0.0 | 0.00 | 0.00 | 0.00 | 99 | 1007.0 |
| 20260507043424 | 0 | 13 | 0.0 | 0.0 | 0.00 | 0.00 | 0.00 | 99 | 1006.2 |
| 20260507042923 | 0 | 183 | 0.0 | 0.0 | 0.00 | 0.00 | 0.00 | 99 | 1007.0 |
| 20260507042423 | 0 | 6 | 0.0 | 0.0 | 0.00 | 0.00 | 0.00 | 99 | 1006.2 |
| 20260507041923 | 0 | 101 | 0.0 | 0.0 | 0.00 | 0.00 | 0.00 | 99 | 1007.0 |
| 20260507041423 | 0 | 182 | 0.0 | 0.0 | 0.00 | 0.00 | 0.00 | 99 | 1006.2 |
| 20260507040923 | 0 | 76 | 0.0 | 0.0 | 0.00 | 0.00 | 0.00 | 99 | 1007.0 |
| 20260507040423 | 0 | 200 | 0.0 | 0.0 | 0.00 | 0.00 | 0.00 | 99 | 1006.2 |
| 20260507035923 | 0 | 70 | 0.0 | 0.0 | 0.00 | 0.00 | 0.00 | 99 | 1007.0 |
| 20260507035423 | 0 | 51 | 0.0 | 0.0 | 0.00 | 0.00 | 0.00 | 99 | 1006.2 |
| 20260507034923 | 0 | 38 | 0.0 | 0.0 | 0.00 | 0.00 | 0.00 | 99 | 1007.0 |
| 20260507034423 | 0 | 2 | 0.0 | 0.0 | 0.00 | 0.00 | 0.00 | 99 | 1006.2 |
| 20260507033923 | 0 | 47 | 0.0 | 0.0 | 0.00 | 0.00 | 0.00 | 99 | 1006.2 |
| 20260507033424 | 0 | 179 | 0.0 | 0.0 | 0.00 | 0.00 | 0.00 | 99 | 1006.2 |
| 20260507032923 | 0 | 153 | 0.0 | 0.0 | 0.00 | 0.00 | 0.00 | 99 | 1007.0 |
| 20260507032423 | 0 | 88 | 0.0 | 0.0 | 0.00 | 0.00 | 0.00 | 99 | 1006.2 |
| 20260507031923 | 0 | 81 | 0.0 | 1.7 | 0.00 | 0.00 | 0.00 | 99 | 1007.0 |
| 20260507031426 | 0 | 77 | 0.0 | 1.7 | 0.00 | 0.00 | 0.00 | 99 | 1007.0 |
| 20260507030923 | 0 | 83 | 0.0 | 0.0 | 0.00 | 0.00 | 0.00 | 99 | 1007.0 |
| 20260507030423 | 0 | 51 | 0.0 | 0.0 | 0.00 | 0.00 | 0.00 | 99 | 1006.2 |
| 20260507025923 | 0 | 49 | 0.0 | 0.0 | 0.00 | 0.00 | 0.00 | 99 | 1007.0 |
| 20260507025423 | 0 | 55 | 0.0 | 0.0 | 0.00 | 0.00 | 0.00 | 99 | 1006.2 |
| 20260507024923 | 0 | 59 | 0.0 | 0.0 | 0.00 | 0.00 | 0.00 | 99 | 1007.0 |
| 20260507024423 | 0 | 170 | 0.0 | 0.0 | 0.00 | 0.00 | 0.00 | 99 | 1006.2 |
| 20260507023923 | 0 | 73 | 0.0 | 0.0 | 0.00 | 0.00 | 0.00 | 99 | 1007.0 |
| 20260507023424 | 0 | 67 | 0.0 | 0.0 | 0.00 | 0.00 | 0.00 | 99 | 1006.2 |
| 20260507022923 | 0 | 135 | 0.0 | 0.0 | 0.00 | 0.00 | 0.00 | 99 | 1007.0 |
| 20260507022423 | 0 | 68 | 0.0 | 0.0 | 0.00 | 0.00 | 0.00 | 99 | 1006.2 |
| 20260507021923 | 49 | 47 | 0.0 | 0.0 | 0.00 | 0.00 | 0.00 | 99 | 1007.0 |
| 20260507021423 | 49 | 49 | 0.0 | 0.0 | 0.00 | 0.00 | 0.00 | 99 | 1007.0 |
| 20260507020923 | 0 | 87 | 0.0 | 0.0 | 0.00 | 0.00 | 0.00 | 99 | 1007.0 |
| 20260507020423 | 0 | 53 | 0.0 | 0.0 | 0.00 | 0.00 | 0.00 | 99 | 1007.0 |
| 20260507015923 | 0 | 98 | 0.0 | 0.0 | 0.00 | 0.00 | 0.00 | 99 | 1007.0 |
| 20260507015423 | 0 | 45 | 0.0 | 0.0 | 0.00 | 0.00 | 0.00 | 99 | 1007.0 |
| 20260507014923 | 0 | 176 | 0.0 | 0.0 | 0.00 | 0.00 | 0.00 | 99 | 1007.0 |
| 20260507014423 | 0 | 52 | 0.0 | 0.0 | 0.00 | 0.00 | 0.00 | 99 | 1006.2 |
| 20260507013923 | 0 | 46 | 0.0 | 0.0 | 0.00 | 0.00 | 0.00 | 99 | 1007.0 |
| 20260507013423 | 0 | 140 | 0.0 | 0.0 | 0.00 | 0.00 | 0.00 | 99 | 1006.2 |
| 20260507012923 | 0 | 35 | 0.0 | 0.0 | 0.00 | 0.00 | 0.00 | 99 | 1007.0 |
| 20260507012423 | 0 | 170 | 0.0 | 0.0 | 0.00 | 0.00 | 0.00 | 99 | 1006.2 |
| 20260507011923 | 0 | 82 | 0.0 | 0.0 | 0.00 | 0.00 | 0.00 | 99 | 1007.0 |
| 20260507011423 | 0 | 51 | 0.0 | 0.0 | 0.00 | 0.00 | 0.00 | 99 | 1007.0 |
| 20260507010923 | 0 | 80 | 0.0 | 0.0 | 0.00 | 0.00 | 0.00 | 99 | 1007.0 |
| 20260507010423 | 0 | 75 | 0.0 | 0.0 | 0.00 | 0.00 | 0.00 | 99 | 1007.0 |
| 20260507005923 | 49 | 72 | 0.0 | 0.0 | 0.00 | 0.00 | 0.00 | 99 | 1006.1 |
| 20260507005423 | 50 | 77 | 0.0 | 0.0 | 0.00 | 0.00 | 0.00 | 99 | 1006.1 |
| 20260507004923 | 0 | 62 | 0.0 | 0.0 | 0.00 | 0.00 | 0.00 | 99 | 1006.0 |
| 20260507004423 | 50 | 75 | 0.0 | 0.0 | 0.00 | 0.00 | 0.00 | 99 | 1006.0 |
| 20260507003923 | 50 | 79 | 0.0 | 0.0 | 0.00 | 0.00 | 0.00 | 99 | 1006.0 |
| 20260507003423 | 50 | 77 | 0.0 | 0.9 | 0.00 | 0.00 | 0.00 | 99 | 1006.0 |
| 20260507002923 | 50 | 80 | 0.0 | 0.9 | 0.00 | 0.00 | 0.00 | 99 | 1006.0 |
| 20260507002423 | 50 | 43 | 0.0 | 0.9 | 0.00 | 0.00 | 0.00 | 99 | 1006.0 |
| 20260507001923 | 49 | 73 | 0.0 | 8.7 | 0.00 | 0.00 | 0.00 | 99 | 1006.0 |
| 20260507001423 | 49 | 67 | 1.7 | 8.7 | 0.00 | 0.00 | 0.00 | 99 | 1006.0 |
| 20260507000923 | 49 | 48 | 0.9 | 7.0 | 0.00 | 0.00 | 0.00 | 99 | 1006.0 |
| 20260507000423 | 49 | 71 | 0.0 | 3.5 | 0.00 | 0.00 | 0.00 | 99 | 1006.0 |
| 20260506235923 | 49 | 81 | 0.0 | 0.0 | 0.00 | 0.00 | 0.00 | 99 | 1006.0 |
| 20260506235423 | 49 | 43 | 0.0 | 0.0 | 0.00 | 0.00 | 0.00 | 99 | 1006.0 |
| 20260506234923 | 49 | 89 | 0.0 | 2.6 | 0.00 | 0.00 | 0.00 | 99 | 1005.2 |
| 20260506234423 | 49 | 83 | 0.0 | 2.6 | 0.00 | 0.00 | 0.00 | 99 | 1006.0 |
| 20260506233923 | 49 | 48 | 0.0 | 2.6 | 0.00 | 0.00 | 0.00 | 99 | 1005.2 |
| 20260506233423 | 50 | 54 | 0.0 | 2.6 | 0.00 | 0.00 | 0.00 | 99 | 1005.2 |
| 20260506232423 | 51 | 51 | 0.0 | 4.3 | 0.00 | 0.00 | 0.00 | 99 | 1005.0 |
| 20260506231923 | 51 | 78 | 0.0 | 2.6 | 0.00 | 0.00 | 0.00 | 99 | 1005.0 |
| 20260506231423 | 51 | 53 | 0.0 | 2.6 | 0.00 | 0.00 | 0.00 | 99 | 1005.0 |
| 20260506230423 | 0 | 66 | 0.0 | 2.6 | 0.00 | 0.00 | 0.00 | 99 | 1005.0 |
| 20260506225923 | 0 | 75 | 0.0 | 3.5 | 0.00 | 0.00 | 0.00 | 99 | 1005.0 |
| 20260506225423 | 0 | 45 | 0.9 | 4.3 | 0.00 | 0.00 | 0.00 | 99 | 1005.0 |
| 20260506224923 | 0 | 63 | 1.7 | 4.3 | 0.00 | 0.00 | 0.00 | 99 | 1005.0 |
| 20260506224423 | 0 | 53 | 0.9 | 4.3 | 0.00 | 0.00 | 0.00 | 99 | 1005.0 |
| 20260506223923 | 0 | 48 | 0.0 | 4.3 | 0.00 | 0.00 | 0.00 | 99 | 1005.0 |
| 20260506223423 | 0 | 76 | 0.0 | 3.5 | 0.00 | 0.00 | 0.00 | 99 | 1005.0 |
| 20260506222923 | 0 | 44 | 0.0 | 2.6 | 0.00 | 0.00 | 0.00 | 99 | 1005.0 |
| 20260506222423 | 0 | 51 | 0.9 | 2.6 | 0.00 | 0.00 | 0.00 | 99 | 1005.0 |
| 20260506221923 | 0 | 46 | 0.0 | 4.3 | 0.00 | 0.00 | 0.00 | 99 | 1004.2 |
| 20260506221423 | 0 | 87 | 0.0 | 4.3 | 0.00 | 0.00 | 0.00 | 99 | 1004.1 |
| 20260506220923 | 0 | 37 | 0.9 | 3.5 | 0.00 | 0.00 | 0.00 | 99 | 1004.1 |
| 20260506220423 | 61 | 85 | 0.9 | 4.3 | 0.00 | 0.00 | 0.00 | 99 | 1004.0 |
| 20260506215923 | 0 | 128 | 1.7 | 4.3 | 0.00 | 0.00 | 0.00 | 99 | 1004.0 |
| 20260506215423 | 0 | 102 | 0.0 | 1.7 | 0.00 | 0.00 | 0.00 | 99 | 1004.0 |
| 20260506214923 | 0 | 210 | 0.0 | 0.0 | 0.00 | 0.00 | 0.00 | 99 | 1004.0 |
| 20260506214423 | 0 | 223 | 0.0 | 1.7 | 0.00 | 0.00 | 0.00 | 99 | 1003.2 |
| 20260506213923 | 0 | 223 | 0.0 | 1.7 | 0.00 | 0.00 | 0.00 | 99 | 1004.0 |
| 20260506213423 | 63 | 227 | 0.0 | 0.9 | 0.00 | 0.00 | 0.00 | 99 | 1003.2 |
| 20260506212923 | 0 | 190 | 0.0 | 0.0 | 0.00 | 0.00 | 0.00 | 99 | 1003.2 |
| 20260506212423 | 63 | 207 | 0.0 | 0.0 | 0.00 | 0.00 | 0.00 | 99 | 1003.2 |
| 20260506211923 | 63 | 218 | 0.0 | 1.7 | 0.00 | 0.00 | 0.00 | 99 | 1004.0 |
| 20260506211423 | 63 | 235 | 0.0 | 1.7 | 0.00 | 0.00 | 0.00 | 99 | 1004.0 |
| 20260506210923 | 63 | 213 | 0.0 | 1.7 | 0.00 | 0.00 | 0.00 | 99 | 1003.2 |
| 20260506210423 | 63 | 225 | 0.0 | 0.0 | 0.00 | 0.00 | 0.00 | 99 | 1003.2 |
| 20260506205923 | 63 | 227 | 0.0 | 0.0 | 0.00 | 0.00 | 0.00 | 99 | 1003.1 |
| 20260506205423 | 63 | 231 | 0.0 | 0.0 | 0.00 | 0.00 | 0.00 | 99 | 1003.0 |
| 20260506204923 | 63 | 231 | 0.0 | 0.9 | 0.00 | 0.00 | 0.00 | 99 | 1003.0 |
| 20260506204423 | 63 | 235 | 0.0 | 2.6 | 0.00 | 0.00 | 0.00 | 99 | 1003.0 |
| 20260506203423 | 63 | 228 | 0.9 | 4.3 | 0.00 | 0.00 | 0.00 | 99 | 1003.1 |
| 20260506202923 | 63 | 235 | 0.9 | 4.3 | 0.00 | 0.00 | 0.00 | 99 | 1003.2 |
| 20260506202423 | 63 | 240 | 0.0 | 2.6 | 0.00 | 0.00 | 0.00 | 99 | 1003.2 |
| 20260506201923 | 64 | 183 | 0.0 | 2.6 | 0.00 | 0.00 | 0.00 | 99 | 1003.0 |
| 20260506201423 | 64 | 222 | 0.0 | 0.0 | 0.00 | 0.00 | 0.00 | 99 | 1003.1 |
| 20260506200923 | 64 | 210 | 0.0 | 0.0 | 0.00 | 0.00 | 0.00 | 99 | 1003.1 |
| 20260506200423 | 63 | 213 | 0.0 | 0.0 | 0.00 | 0.00 | 0.00 | 99 | 1003.2 |
| 20260506195923 | 63 | 215 | 0.0 | 0.0 | 0.00 | 0.00 | 0.00 | 99 | 1003.2 |
| 20260506195423 | 63 | 185 | 0.0 | 0.0 | 0.00 | 0.00 | 0.00 | 99 | 1003.2 |
| 20260506194923 | 64 | 235 | 0.0 | 0.9 | 0.00 | 0.00 | 0.00 | 99 | 1004.0 |
| 20260506194423 | 64 | 231 | 0.0 | 2.6 | 0.00 | 0.00 | 0.00 | 99 | 1004.0 |
| 20260506193923 | 64 | 230 | 0.9 | 2.6 | 0.00 | 0.00 | 0.00 | 99 | 1004.0 |
| 20260506193423 | 64 | 230 | 0.9 | 2.6 | 0.00 | 0.00 | 0.00 | 99 | 1003.2 |
| 20260506192923 | 64 | 237 | 0.9 | 1.7 | 0.00 | 0.00 | 0.00 | 99 | 1003.2 |
| 20260506192423 | 64 | 205 | 0.9 | 1.7 | 0.00 | 0.00 | 0.00 | 99 | 1004.0 |
| 20260506191923 | 64 | 233 | 0.9 | 1.7 | 0.00 | 0.00 | 0.00 | 99 | 1003.2 |
| 20260506191423 | 64 | 236 | 0.0 | 1.7 | 0.00 | 0.00 | 0.00 | 99 | 1004.0 |
| 20260506190923 | 63 | 222 | 0.0 | 1.7 | 0.00 | 0.00 | 0.00 | 99 | 1004.0 |
| 20260506190423 | 63 | 226 | 0.0 | 5.2 | 0.00 | 0.00 | 0.00 | 99 | 1004.0 |
| 20260506185923 | 63 | 183 | 1.7 | 5.2 | 0.00 | 0.00 | 0.00 | 99 | 1003.2 |
| 20260506185423 | 0 | 181 | 0.9 | 2.6 | 0.00 | 0.00 | 0.00 | 99 | 1004.0 |
| 20260506184923 | 0 | 225 | 0.9 | 2.6 | 0.00 | 0.00 | 0.00 | 99 | 1004.0 |
| 20260506184423 | 0 | 211 | 0.0 | 2.6 | 0.00 | 0.00 | 0.00 | 99 | 1004.0 |
| 20260506183923 | 0 | 230 | 0.9 | 2.6 | 0.00 | 0.00 | 0.00 | 99 | 1004.0 |
| 20260506183423 | 0 | 214 | 0.9 | 3.5 | 0.00 | 0.00 | 0.00 | 99 | 1004.0 |
| 20260506182923 | 0 | 226 | 1.7 | 3.5 | 0.00 | 0.00 | 0.00 | 99 | 1004.0 |
| 20260506182423 | 0 | 231 | 1.7 | 3.5 | 0.00 | 0.00 | 0.00 | 99 | 1004.0 |
| 20260506181923 | 0 | 240 | 0.9 | 4.3 | 0.00 | 0.00 | 0.00 | 99 | 1004.0 |
| 20260506181423 | 0 | 207 | 1.7 | 4.3 | 0.00 | 0.00 | 0.00 | 99 | 1004.0 |
| 20260506180923 | 63 | 226 | 0.9 | 3.5 | 0.00 | 0.00 | 0.00 | 99 | 1004.0 |
| 20260506180423 | 0 | 221 | 0.9 | 3.5 | 0.00 | 0.00 | 0.00 | 99 | 1004.0 |
| 20260506175923 | 0 | 231 | 0.9 | 2.6 | 0.00 | 0.00 | 0.00 | 99 | 1004.0 |
| 20260506175423 | 63 | 179 | 0.9 | 2.6 | 0.00 | 0.00 | 0.00 | 99 | 1004.0 |
| 20260506174923 | 63 | 219 | 1.7 | 4.3 | 0.00 | 0.00 | 0.00 | 99 | 1004.0 |
| 20260506174423 | 63 | 178 | 1.7 | 4.3 | 0.00 | 0.00 | 0.00 | 99 | 1004.0 |
| 20260506173923 | 63 | 267 | 1.7 | 4.3 | 0.00 | 0.00 | 0.00 | 99 | 1004.0 |
| 20260506173423 | 63 | 229 | 1.7 | 4.3 | 0.00 | 0.00 | 0.00 | 99 | 1004.0 |
| 20260506172923 | 63 | 221 | 1.7 | 7.0 | 0.00 | 0.00 | 0.00 | 99 | 1004.0 |
| 20260506171923 | 0 | 229 | 1.7 | 5.2 | 0.00 | 0.00 | 0.00 | 99 | 1004.0 |
| 20260506171423 | 0 | 234 | 1.7 | 5.2 | 0.00 | 0.00 | 0.00 | 99 | 1004.0 |
| 20260506170923 | 0 | 221 | 1.7 | 4.3 | 0.00 | 0.00 | 0.00 | 99 | 1004.0 |
| 20260506170423 | 0 | 223 | 0.9 | 3.5 | 0.00 | 0.00 | 0.00 | 99 | 1004.0 |
| 20260506165923 | 0 | 224 | 0.9 | 3.5 | 0.00 | 0.00 | 0.00 | 99 | 1004.0 |
| 20260506165423 | 0 | 228 | 0.0 | 0.0 | 0.00 | 0.00 | 0.00 | 99 | 1004.0 |
| 20260506164923 | 0 | 217 | 0.0 | 0.0 | 0.00 | 0.00 | 0.00 | 99 | 1004.0 |
| 20260506164423 | 0 | 221 | 0.0 | 0.0 | 0.00 | 0.00 | 0.00 | 99 | 1004.0 |
| 20260506163923 | 0 | 226 | 0.0 | 0.0 | 0.00 | 0.00 | 0.00 | 99 | 1004.0 |
| 20260506163423 | 0 | 224 | 0.0 | 0.0 | 0.00 | 0.00 | 0.00 | 99 | 1004.0 |
| 20260506162923 | 0 | 226 | 0.0 | 0.0 | 0.00 | 0.00 | 0.00 | 99 | 1004.1 |
| 20260506162423 | 0 | 204 | 0.0 | 0.0 | 0.00 | 0.00 | 0.00 | 99 | 1005.0 |
| 20260506161923 | 0 | 182 | 0.0 | 0.0 | 0.00 | 0.00 | 0.00 | 99 | 1005.0 |
| 20260506161423 | 0 | 175 | 0.0 | 0.0 | 0.00 | 0.00 | 0.00 | 99 | 1005.0 |
| 20260506160923 | 0 | 190 | 0.0 | 0.0 | 0.00 | 0.00 | 0.00 | 99 | 1004.2 |
| 20260506160423 | 0 | 239 | 0.0 | 0.0 | 0.00 | 0.00 | 0.00 | 99 | 1004.2 |
| 20260506155923 | 0 | 235 | 0.0 | 0.0 | 0.00 | 0.00 | 0.00 | 99 | 1005.0 |
| 20260506155423 | 60 | 220 | 0.0 | 0.0 | 0.00 | 0.00 | 0.00 | 99 | 1004.2 |
| 20260506154923 | 60 | 232 | 0.0 | 0.0 | 0.00 | 0.00 | 0.00 | 99 | 1005.0 |
| 20260506154423 | 60 | 324 | 0.0 | 0.0 | 0.00 | 0.00 | 0.00 | 99 | 1005.0 |
| 20260506153923 | 59 | 269 | 0.0 | 0.0 | 0.00 | 0.00 | 0.00 | 99 | 1005.0 |
| 20260506153423 | 59 | 265 | 0.0 | 0.0 | 0.00 | 0.00 | 0.00 | 99 | 1005.0 |
| 20260506152923 | 59 | 300 | 0.0 | 0.0 | 0.00 | 0.00 | 0.00 | 99 | 1005.0 |
| 20260506152423 | 59 | 279 | 0.0 | 0.0 | 0.00 | 0.00 | 0.00 | 99 | 1004.2 |
| 20260506151923 | 59 | 261 | 0.0 | 0.0 | 0.00 | 0.00 | 0.00 | 99 | 1005.0 |
| 20260506151422 | 59 | 273 | 0.0 | 0.0 | 0.00 | 0.00 | 0.00 | 99 | 1005.0 |
| 20260506150922 | 59 | 94 | 0.0 | 0.0 | 0.00 | 0.00 | 0.00 | 99 | 1005.0 |
| 20260506150422 | 58 | 60 | 0.0 | 0.0 | 0.00 | 0.00 | 0.00 | 99 | 1005.0 |
| 20260506145922 | 58 | 74 | 0.0 | 0.0 | 0.00 | 0.00 | 0.00 | 99 | 1005.0 |
| 20260506145422 | 58 | 160 | 0.0 | 0.0 | 0.00 | 0.00 | 0.00 | 99 | 1005.0 |
| 20260506144422 | 58 | 157 | 0.0 | 0.0 | 0.00 | 0.00 | 0.00 | 99 | 1005.0 |
| 20260506143922 | 58 | 41 | 0.0 | 0.0 | 0.00 | 0.00 | 0.00 | 99 | 1005.0 |
| 20260506143423 | 57 | 284 | 0.0 | 0.0 | 0.00 | 0.00 | 0.00 | 99 | 1005.0 |
| 20260506142922 | 57 | 334 | 0.0 | 0.0 | 0.00 | 0.00 | 0.00 | 99 | 1005.0 |
| 20260506142422 | 57 | 148 | 0.0 | 0.0 | 0.00 | 0.00 | 0.00 | 99 | 1005.0 |
| 20260506141922 | 57 | 94 | 0.0 | 0.0 | 0.00 | 0.00 | 0.00 | 99 | 1005.0 |
| 20260506141422 | 58 | 148 | 0.0 | 0.0 | 0.00 | 0.00 | 0.00 | 99 | 1005.0 |
| 20260506140922 | 58 | 131 | 0.0 | 0.0 | 0.00 | 0.00 | 0.00 | 99 | 1005.0 |
| 20260506140422 | 58 | 345 | 0.0 | 0.0 | 0.00 | 0.00 | 0.00 | 99 | 1005.2 |
| 20260506135922 | 58 | 340 | 0.0 | 0.0 | 0.00 | 0.00 | 0.00 | 99 | 1005.1 |
| 20260506135422 | 59 | 352 | 0.0 | 0.0 | 0.00 | 0.00 | 0.00 | 99 | 1005.0 |
| 20260506134922 | 59 | 245 | 0.0 | 0.0 | 0.00 | 0.00 | 0.00 | 99 | 1005.0 |
| 20260506134422 | 60 | 74 | 0.0 | 0.0 | 0.00 | 0.00 | 0.00 | 99 | 1005.0 |
| 20260506133922 | 61 | 67 | 0.0 | 0.0 | 0.00 | 0.00 | 0.00 | 99 | 1005.0 |
| 20260506133423 | 62 | 149 | 0.0 | 0.0 | 0.00 | 0.00 | 0.00 | 99 | 1005.0 |
| 20260506132922 | 62 | 150 | 0.0 | 0.0 | 0.00 | 0.00 | 0.00 | 99 | 1005.0 |
| 20260506132422 | 62 | 74 | 0.0 | 0.0 | 0.00 | 0.00 | 0.00 | 99 | 1005.0 |
| 20260506131922 | 62 | 91 | 0.0 | 0.0 | 0.00 | 0.00 | 0.00 | 99 | 1005.0 |
| 20260506131422 | 62 | 137 | 0.0 | 0.0 | 0.00 | 0.00 | 0.00 | 99 | 1005.0 |
| 20260506130922 | 62 | 107 | 0.0 | 0.0 | 0.00 | 0.00 | 0.00 | 99 | 1005.0 |
| 20260506130422 | 61 | 130 | 0.0 | 0.0 | 0.00 | 0.00 | 0.00 | 99 | 1005.0 |
| 20260506125922 | 60 | 338 | 0.0 | 0.0 | 0.00 | 0.00 | 0.00 | 99 | 1005.0 |
| 20260506125422 | 59 | 64 | 0.0 | 0.0 | 0.00 | 0.00 | 0.00 | 99 | 1005.0 |
| 20260506124922 | 58 | 254 | 0.0 | 0.0 | 0.00 | 0.00 | 0.00 | 99 | 1005.0 |
| 20260506124422 | 57 | 222 | 0.0 | 0.0 | 0.00 | 0.00 | 0.00 | 99 | 1005.0 |
| 20260506123922 | 57 | 160 | 0.0 | 0.0 | 0.00 | 0.00 | 0.00 | 99 | 1005.0 |
| 20260506123422 | 57 | 232 | 0.0 | 0.0 | 0.00 | 0.00 | 0.00 | 99 | 1005.0 |
| 20260506122922 | 56 | 59 | 0.0 | 0.0 | 0.00 | 0.00 | 0.00 | 99 | 1005.0 |